When you browse on this site, cookies collect data to enhance your experience and personalize the content and advertising you see.
Visit our Privacy Policy to learn more. By continuing to use the site, you agree to this use of cookies and data.
  • In Hungary
  • List of Countries
  • For 7 days
  • Water Temperature
  • Weather Map
  • News
  • Weather Widgets
  • user-avatar
    Login

    Hourly Weather Madani

    Today, 15 December, Sunday

    Time Temperature Precipitation Wind Pressure Humidity
    00:00 -1°C° 0 mm 1 mps 736 mmHg 77%
    01:00 -1°C° 0 mm 1 mps 736 mmHg 77%
    02:00 -1°C° 0 mm 1 mps 736 mmHg 76%
    03:00 -1°C° 0 mm 1 mps 736 mmHg 76%
    04:00 -1°C° 0 mm 1 mps 736 mmHg 75%
    05:00 -3°C° 0 mm 1 mps 736 mmHg 78%
    06:00 -3°C° 0 mm 1 mps 736 mmHg 77%
    07:00 -3°C° 0 mm 1 mps 736 mmHg 76%
    08:00 -3°C° 0 mm 1 mps 736 mmHg 75%
    09:00 -1°C° 0 mm 1 mps 736 mmHg 69%
    10:00 0°C° 0 mm 1 mps 736 mmHg 64%
    11:00 +2°C° 0 mm 1 mps 736 mmHg 59%
    12:00 +2°C° 0 mm 1 mps 736 mmHg 58%
    13:00 +3°C° 0 mm 1 mps 736 mmHg 57%
    14:00 +4°C° 0 mm 1 mps 736 mmHg 56%
    15:00 +2°C° 0 mm 1 mps 736 mmHg 61%
    16:00 -1°C° 0 mm 2 mps 736 mmHg 66%
    17:00 -2°C° 0 mm 2 mps 736 mmHg 71%
    18:00 -2°C° 0 mm 2 mps 736 mmHg 72%
    19:00 -3°C° 0 mm 2 mps 736 mmHg 73%
    20:00 -4°C° 0 mm 3 mps 736 mmHg 73%
    21:00 -4°C° 0 mm 3 mps 735 mmHg 71%
    22:00 -4°C° 0 mm 3 mps 735 mmHg 70%
    23:00 -3°C° 0 mm 2 mps 735 mmHg 68%

    Tomorrow, 16 December, Monday

    Time Temperature Precipitation Wind Pressure Humidity
    00:00 -3°C° 0 mm 2 mps 735 mmHg 65%
    01:00 -3°C° 0 mm 2 mps 735 mmHg 62%
    02:00 -3°C° 0 mm 2 mps 735 mmHg 59%
    03:00 -3°C° 0 mm 2 mps 735 mmHg 57%
    04:00 -3°C° 0 mm 2 mps 735 mmHg 55%
    05:00 -3°C° 0 mm 2 mps 735 mmHg 53%
    06:00 -3°C° 0 mm 2 mps 735 mmHg 53%
    07:00 -3°C° 0 mm 2 mps 735 mmHg 52%
    08:00 -3°C° 0 mm 2 mps 735 mmHg 51%
    09:00 -1°C° 0 mm 2 mps 735 mmHg 49%
    10:00 +2°C° 0 mm 2 mps 735 mmHg 46%
    11:00 +3°C° 0 mm 2 mps 735 mmHg 44%
    12:00 +5°C° 0 mm 1 mps 735 mmHg 43%
    13:00 +6°C° 0 mm 1 mps 734 mmHg 43%
    14:00 +6°C° 0 mm 1 mps 734 mmHg 43%
    15:00 +5°C° 0 mm 1 mps 734 mmHg 46%
    16:00 +3°C° 0 mm 1 mps 734 mmHg 50%
    17:00 +1°C° 0 mm 2 mps 734 mmHg 54%
    18:00 -1°C° 0 mm 2 mps 734 mmHg 52%
    19:00 -1°C° 0 mm 2 mps 733 mmHg 50%
    20:00 -1°C° 0 mm 2 mps 733 mmHg 49%
    21:00 -1°C° 0 mm 2 mps 733 mmHg 46%
    22:00 -1°C° 0 mm 2 mps 733 mmHg 44%
    23:00 -1°C° 0 mm 2 mps 733 mmHg 42%

    Day after tomorrow, 17 December, Tuesday

    Time Temperature Precipitation Wind Pressure Humidity
    00:00 -1°C° 0 mm 2 mps 733 mmHg 40%
    01:00 -1°C° 0 mm 2 mps 733 mmHg 38%
    02:00 +1°C° 0 mm 1 mps 733 mmHg 36%
    03:00 +1°C° 0 mm 2 mps 733 mmHg 35%
    04:00 +1°C° 0 mm 2 mps 733 mmHg 34%
    05:00 +1°C° 0 mm 2 mps 733 mmHg 33%
    06:00 +1°C° 0 mm 2 mps 733 mmHg 33%
    07:00 +1°C° 0 mm 2 mps 733 mmHg 33%
    08:00 +1°C° 0 mm 2 mps 733 mmHg 33%
    09:00 +3°C° 0 mm 2 mps 733 mmHg 33%
    10:00 +6°C° 0 mm 1 mps 734 mmHg 33%
    11:00 +8°C° 0 mm 1 mps 734 mmHg 33%
    12:00 +9°C° 0 mm 1 mps 733 mmHg 35%
    13:00 +8°C° 0 mm 0 mps 733 mmHg 36%
    14:00 +9°C° 0 mm 0 mps 732 mmHg 38%
    15:00 +8°C° 0 mm 1 mps 732 mmHg 38%
    16:00 +7°C° 0 mm 1 mps 732 mmHg 38%
    17:00 +5°C° 0 mm 1 mps 732 mmHg 38%
    18:00 +4°C° 0 mm 2 mps 732 mmHg 39%
    19:00 +4°C° 0 mm 2 mps 731 mmHg 40%
    20:00 +4°C° 0 mm 2 mps 731 mmHg 40%
    21:00 +4°C° 0 mm 2 mps 731 mmHg 42%
    22:00 +4°C° 0 mm 2 mps 731 mmHg 44%
    23:00 +4°C° 0 mm 2 mps 730 mmHg 46%

    18 December, Wednesday

    Time Temperature Precipitation Wind Pressure Humidity
    00:00 +4°C° 0 mm 2 mps 730 mmHg 47%
    01:00 +4°C° 0 mm 2 mps 730 mmHg 49%
    02:00 +5°C° 0 mm 1 mps 730 mmHg 50%
    03:00 +5°C° 0 mm 1 mps 730 mmHg 51%
    04:00 +5°C° 0 mm 1 mps 730 mmHg 53%
    05:00 +5°C° 0 mm 1 mps 730 mmHg 54%
    06:00 +5°C° 0 mm 1 mps 730 mmHg 56%
    07:00 +5°C° 0 mm 1 mps 730 mmHg 57%
    08:00 +5°C° 0 mm 1 mps 730 mmHg 58%
    09:00 +5°C° 0 mm 2 mps 730 mmHg 58%
    10:00 +5°C° 0 mm 3 mps 731 mmHg 59%
    11:00 +7°C° 0 mm 3 mps 731 mmHg 59%
    12:00 +6°C° 0 mm 4 mps 731 mmHg 59%
    13:00 +6°C° 0 mm 5 mps 731 mmHg 59%
    14:00 +6°C° 0 mm 5 mps 731 mmHg 59%
    15:00 +5°C° 0.1 mm 5 mps 731 mmHg 65%
    16:00 +3°C° 0.1 mm 5 mps 732 mmHg 71%
    17:00 +3°C° 0.1 mm 4 mps 732 mmHg 77%
    18:00 +3°C° 0.1 mm 4 mps 733 mmHg 81%
    19:00 +3°C° 0.1 mm 4 mps 733 mmHg 85%
    20:00 +1°C° 0.1 mm 4 mps 734 mmHg 88%
    21:00 +1°C° 0 mm 4 mps 734 mmHg 89%
    22:00 +2°C° 0 mm 3 mps 734 mmHg 90%
    23:00 +1°C° 0 mm 3 mps 735 mmHg 91%

    19 December, Thursday

    Time Temperature Precipitation Wind Pressure Humidity
    00:00 +2°C° 0 mm 2 mps 734 mmHg 91%
    01:00 +2°C° 0 mm 2 mps 734 mmHg 91%
    02:00 +3°C° 0 mm 1 mps 734 mmHg 91%
    03:00 +2°C° 0 mm 1 mps 734 mmHg 91%
    04:00 +2°C° 0 mm 1 mps 734 mmHg 91%
    05:00 +2°C° 0 mm 1 mps 734 mmHg 91%
    06:00 +2°C° 0 mm 1 mps 733 mmHg 89%
    07:00 +2°C° 0 mm 1 mps 733 mmHg 87%
    08:00 +2°C° 0 mm 1 mps 733 mmHg 84%
    09:00 +3°C° 0 mm 2 mps 733 mmHg 79%
    10:00 +4°C° 0 mm 2 mps 733 mmHg 73%
    11:00 +4°C° 0 mm 3 mps 732 mmHg 68%
    12:00 +5°C° 0 mm 4 mps 732 mmHg 69%
    13:00 +6°C° 0 mm 5 mps 731 mmHg 70%
    14:00 +5°C° 0 mm 7 mps 731 mmHg 71%
    15:00 +5°C° 0 mm 6 mps 731 mmHg 74%
    16:00 +5°C° 0 mm 5 mps 730 mmHg 77%
    17:00 +5°C° 0 mm 4 mps 730 mmHg 81%
    18:00 +4°C° 0 mm 4 mps 730 mmHg 80%
    19:00 +3°C° 0 mm 5 mps 730 mmHg 80%
    20:00 +3°C° 0 mm 5 mps 730 mmHg 79%
    21:00 +2°C° 0.1 mm 5 mps 730 mmHg 80%
    22:00 +2°C° 0.1 mm 5 mps 730 mmHg 80%
    23:00 +1°C° 0.1 mm 5 mps 730 mmHg 80%

    20 December, Friday

    Time Temperature Precipitation Wind Pressure Humidity
    00:00 +1°C° 0.3 mm 5 mps 730 mmHg 83%
    01:00 +1°C° 0.3 mm 5 mps 730 mmHg 87%
    02:00 0°C° 0.3 mm 5 mps 730 mmHg 90%
    03:00 0°C° 1 mm 5 mps 730 mmHg 92%
    04:00 0°C° 1 mm 5 mps 730 mmHg 94%
    05:00 -1°C° 1 mm 6 mps 730 mmHg 97%
    06:00 0°C° 0.7 mm 5 mps 731 mmHg 97%
    07:00 0°C° 0.7 mm 5 mps 732 mmHg 97%
    08:00 0°C° 0.7 mm 5 mps 732 mmHg 97%
    09:00 +1°C° 0.3 mm 4 mps 733 mmHg 96%
    10:00 +1°C° 0.3 mm 4 mps 733 mmHg 95%
    11:00 +1°C° 0.3 mm 4 mps 733 mmHg 95%
    12:00 +3°C° 0 mm 4 mps 733 mmHg 91%
    13:00 +3°C° 0 mm 3 mps 733 mmHg 87%
    14:00 +4°C° 0 mm 3 mps 733 mmHg 83%
    15:00 +5°C° 0 mm 2 mps 733 mmHg 84%
    16:00 +4°C° 0 mm 2 mps 733 mmHg 84%
    17:00 +5°C° 0 mm 1 mps 733 mmHg 85%
    18:00 +4°C° 0 mm 1 mps 733 mmHg 85%
    19:00 +4°C° 0 mm 1 mps 733 mmHg 85%
    20:00 +3°C° 0 mm 2 mps 733 mmHg 85%
    21:00 +2°C° 0 mm 2 mps 733 mmHg 84%
    22:00 +2°C° 0 mm 2 mps 733 mmHg 82%
    23:00 +3°C° 0 mm 1 mps 732 mmHg 81%
    Show more